DW5225 Weather Reports


time (UTC)temp
C
wind
direction
speed
KPH
gust
KPH
rain 1hr
cm
rain 24hr
cm
rain mn
cm
humidity
%
barometer
mb
20260509044538 7 0 0.0 0.0 0.00 0.00 0.00 77 1018.2
20260509043052 7 0 0.0 0.0 0.00 0.00 0.00 78 1018.0
20260509041540 7 0 0.0 0.0 0.00 0.00 0.00 78 1018.0
20260509040045 7 0 0.0 0.0 0.00 0.00 0.00 78 1017.8
20260509034540 7 0 0.0 0.0 0.00 0.00 0.00 78 1017.7
20260509033040 7 0 0.0 0.0 0.00 0.00 0.00 78 1017.7
20260509031546 7 0 0.0 0.0 0.00 0.00 0.00 79 1017.7
20260509030044 7 0 0.0 0.0 0.00 0.00 0.00 79 1017.8
20260509024541 7 0 0.0 0.0 0.00 0.00 0.00 77 1017.9
20260509023042 7 0 0.0 0.0 0.00 0.00 0.00 78 1017.9
20260509021540 7 0 0.0 0.0 0.00 0.00 0.00 78 1017.9
20260509020038 7 0 0.0 0.0 0.00 0.00 0.00 77 1017.7
20260509014542 8 0 0.0 0.0 0.00 0.00 0.00 77 1017.6
20260509013048 8 0 0.0 0.0 0.00 0.00 0.00 77 1017.6
20260509011540 8 0 0.0 0.0 0.00 0.00 0.00 76 1017.6
20260509010042 8 0 0.0 0.0 0.00 0.00 0.00 77 1017.6
20260509004601 8 0 0.0 0.0 0.00 0.00 0.00 76 1017.6
20260509003042 8 0 0.0 0.0 0.00 0.00 0.00 75 1017.7
20260509001542 8 0 0.0 0.0 0.00 0.00 0.00 75 1017.7
20260509000041 9 0 0.0 0.0 0.00 0.00 0.00 75 1017.9
20260508234539 10 0 0.0 0.0 0.00 0.00 0.00 74 1017.8
20260508233038 10 0 0.0 0.0 0.00 0.00 0.00 74 1017.8
20260508231541 10 0 0.0 0.0 0.00 0.00 0.00 73 1018.0
20260508230053 10 0 0.0 0.0 0.00 0.00 0.00 73 1018.0
20260508224541 10 0 0.0 0.0 0.00 0.00 0.00 72 1018.0
20260508223040 11 0 0.0 0.0 0.00 0.00 0.00 72 1018.0
20260508221540 11 0 0.0 0.0 0.00 0.00 0.00 71 1017.9
20260508220050 11 0 0.0 0.0 0.00 0.00 0.00 70 1017.8
20260508214547 12 0 0.0 0.0 0.00 0.00 0.00 69 1017.8
20260508213040 12 0 0.0 0.0 0.00 0.00 0.00 68 1017.5
20260508211543 12 0 0.0 0.0 0.00 0.00 0.00 68 1017.5
20260508210057 12 0 0.0 0.0 0.00 0.00 0.00 67 1017.4
20260508204539 12 0 0.0 0.0 0.00 0.00 0.00 67 1017.3
20260508203040 12 0 0.0 0.0 0.00 0.00 0.00 67 1017.2
20260508201544 12 0 0.0 0.0 0.00 0.00 0.00 66 1017.0
20260508200047 12 0 0.0 0.0 0.00 0.00 0.00 66 1016.8
20260508194546 13 0 0.0 0.0 0.00 0.00 0.00 65 1016.6
20260508193045 13 0 0.0 0.0 0.00 0.00 0.00 64 1016.3
20260508191538 13 0 0.0 0.0 0.00 0.00 0.00 62 1016.0
20260508190053 14 0 0.0 0.0 0.00 0.00 0.00 60 1015.8
20260508184556 15 0 0.0 0.0 0.00 0.18 0.00 58 1015.4
20260508183040 15 0 0.0 0.0 0.00 0.18 0.00 58 1015.1
20260508181558 15 0 0.0 0.0 0.00 0.18 0.00 57 1014.8
20260508180039 15 0 0.0 0.0 0.00 0.18 0.00 56 1014.7
20260508174546 16 0 0.0 0.0 0.00 0.18 0.00 54 1014.3
20260508173046 16 0 0.0 0.0 0.00 0.18 0.00 54 1014.2
20260508171541 17 0 0.0 0.0 0.00 0.18 0.00 52 1014.1
20260508170042 17 0 0.0 0.0 0.00 0.18 0.00 50 1014.2
20260508164558 17 0 0.0 0.0 0.00 0.18 0.00 48 1014.2
20260508163039 17 0 0.0 0.0 0.00 0.18 0.00 46 1014.1
20260508161549 17 0 0.0 0.0 0.00 0.18 0.00 45 1014.0
20260508160043 17 0 0.0 0.0 0.00 0.18 0.00 44 1014.1
20260508154543 17 0 0.0 0.0 0.00 0.18 0.00 43 1014.0
20260508153041 17 0 0.0 0.0 0.00 0.18 0.00 42 1014.1
20260508151541 17 0 0.0 0.0 0.00 0.18 0.00 41 1014.2
20260508150040 18 0 0.0 0.0 0.00 0.18 0.00 41 1014.1
20260508144546 17 0 0.0 0.0 0.00 0.18 0.00 40 1014.2
20260508143040 17 0 0.0 0.0 0.00 0.18 0.00 39 1014.3
20260508141551 18 0 0.0 0.0 0.00 0.18 0.00 38 1014.3
20260508140048 18 0 0.0 0.0 0.00 0.18 0.00 36 1014.3
20260508134544 18 0 0.0 0.0 0.00 0.18 0.00 34 1014.3
20260508133108 18 0 0.0 0.0 0.00 0.18 0.00 35 1014.6
20260508131542 18 0 0.0 0.0 0.00 0.18 0.00 36 1014.8
20260508130037 17 0 0.0 0.0 0.00 0.18 0.00 36 1014.9
20260508124540 17 0 0.0 0.0 0.00 0.18 0.00 36 1015.1
20260508123055 17 0 0.0 0.0 0.00 0.18 0.00 37 1015.1
20260508121540 17 0 0.0 0.0 0.00 0.18 0.00 36 1015.2
20260508120040 17 0 0.0 0.0 0.00 0.18 0.00 36 1015.2
20260508114538 16 0 0.0 0.0 0.00 0.18 0.00 38 1015.1
20260508113059 16 0 0.0 0.0 0.00 0.18 0.00 38 1015.2
20260508111544 16 0 0.0 0.0 0.00 0.18 0.00 45 1015.2
20260508110050 16 0 0.0 0.0 0.00 0.18 0.00 57 1015.3
20260508104541 15 0 0.0 0.0 0.00 0.18 0.00 60 1015.6
20260508103047 14 0 0.0 0.0 0.00 0.18 0.00 62 1015.8
20260508101537 14 0 0.0 0.0 0.00 0.18 0.00 61 1015.8
20260508100043 14 0 0.0 0.0 0.00 0.18 0.00 63 1015.8
20260508094541 13 0 0.0 0.0 0.00 0.18 0.00 66 1015.7
20260508093041 13 0 0.0 0.0 0.00 0.18 0.00 68 1015.8
20260508091551 12 0 0.0 0.0 0.00 0.18 0.00 71 1015.9
20260508090057 12 0 0.0 0.0 0.00 0.18 0.00 72 1016.1
20260508084542 11 0 0.0 0.0 0.00 0.18 0.00 75 1016.2
20260508083043 11 0 0.0 0.0 0.00 0.18 0.00 76 1016.3
20260508081541 10 0 0.0 0.0 0.00 0.18 0.00 78 1016.4
20260508080040 10 0 0.0 0.0 0.00 0.18 0.00 78 1016.5
20260508074544 10 0 0.0 0.0 0.00 0.18 0.00 80 1016.7
20260508073040 10 0 0.0 0.0 0.00 0.18 0.00 80 1016.6
20260508071547 9 0 0.0 0.0 0.00 0.18 0.00 80 1016.8
20260508070044 8 0 0.0 0.0 0.00 0.18 0.00 83 1016.9
20260508064543 8 0 0.0 0.0 0.00 0.18 0.00 87 1017.1
20260508063041 7 0 0.0 0.0 0.00 0.18 0.00 92 1017.0
20260508061540 6 0 0.0 0.0 0.00 0.18 0.00 93 1017.0
20260508060040 5 0 0.0 0.0 0.00 0.18 0.00 92 1016.8
20260508054537 5 0 0.0 0.0 0.00 0.18 0.00 92 1016.7
20260508053109 5 0 0.0 0.0 0.00 0.18 0.00 92 1016.6
20260508051545 5 0 0.0 0.0 0.00 0.18 0.00 92 1016.7
20260508050042 5 0 0.0 0.0 0.00 0.18 0.00 92 1016.6